Home > Time Zones > World Clock > Weather > U.S.A. > Nome > Past weeks

Flag for U.S.A. Weather past 2 weeks in Nome, Alaska, U.S.A.

Now
4 °F

Light snow. Ice fog.


Feels Like: 4 °F
Forecast: -5 / 8 °F
Wind: No wind

Location: Nome Airport

Current Time: Mar 30, 2015 at 12:49:36 PM

Latest Report: Mar 30, 2015 at 11:53 AM


Visibility: 3 mi

Pressure: 29.63 "Hg

Humidity: 91%

Dew point: 2 °F

Location of NomeLocation

Historic Weather in Nome — Graph

°F

Nome temperature yesterday

Maximum temperature yesterday: 14 °F (at 3:53 PM)
Minimum temperature yesterday: -3 °F (at 8:53 AM)
Average temperature yesterday: 7 °F

Past Weeks' High & Low Weather Summary

 TemperatureHumidityPressure
High28 °F (Mar 19, 2:53 PM)96% (Mar 21, 3:53 AM)30.12 "Hg (Mar 21, 3:53 AM)
Low-11 °F (Mar 16, 2:53 AM)49% (Mar 15, 6:53 PM)29.49 "Hg (Mar 26, 5:53 PM)
Average12 °F78%29.76 "Hg
* Reported Mar 15 10:53 AM — Mar 30 10:53 AM, Nome, Weather by CustomWeather, © 2015

Note: Actual official high and low records may vary slightly from our data, if they occured in-between our weather recording intervals... More about our weather records

Advertising

Nome weather history for previous 24 hours

 ConditionsComfort  
Time TempWeatherWind HumidityBarometerVisibility
10:53 AM
Mon, Mar 30
3 °FOvercast.No wind87%29.60 "Hg10 mi
9:53 AM1 °FBroken clouds.No wind87%29.60 "Hg7 mi
8:53 AM0 °FLight snow. Ice fog.No wind91%29.62 "Hg4 mi
7:53 AM1 °FLight snow. Ice fog.No wind92%29.61 "Hg4 mi
6:53 AM0 °FLight snow. Ice fog.No wind87%29.60 "Hg4 mi
5:53 AM0 °FLight snow. Ice fog.6 mph87%29.61 "Hg5 mi
4:53 AM2 °FIce fog.No wind88%29.61 "Hg4 mi
3:53 AM2 °FIce fog.No wind92%29.60 "Hg6 mi
2:53 AM2 °FLight snow. Ice fog.3 mph88%29.60 "Hg4 mi
1:53 AM2 °FLight snow. Ice fog.No wind88%29.59 "Hg4 mi
12:53 AM3 °FIce fog.No wind87%29.58 "Hg6 mi
11:53 PM
Sun, Mar 29
5 °FLight snow. Low clouds.No wind87%29.57 "Hg4 mi
10:53 PM4 °FPassing clouds.No wind91%29.59 "Hg10 mi
9:53 PM9 °FPassing clouds.3 mph88%29.58 "Hg10 mi
8:53 PM13 °FScattered clouds.No wind84%29.58 "Hg10 mi
7:53 PM14 °FScattered clouds.3 mph80%29.59 "Hg10 mi
6:53 PM14 °FScattered clouds.5 mph80%29.60 "Hg10 mi
5:53 PM14 °FScattered clouds.7 mph80%29.59 "Hg10 mi
4:53 PM14 °FScattered clouds.6 mph77%29.60 "Hg10 mi
3:53 PM14 °FSunny.3 mph73%29.58 "Hg10 mi
2:53 PM12 °FSunny.5 mph84%29.60 "Hg10 mi
1:53 PM11 °FSunny.7 mph88%29.59 "Hg10 mi
12:53 PM10 °FSunny.6 mph84%29.59 "Hg10 mi
Weather by CustomWeather, © 2015

See weather overviewHow to use our weather pages